Total_Precipitation_Accumulation
0.14 0.16 0.19 0.17 0.18 0.20 0.24 0.35 0.52 0.39 0.10 0.02 0.02 0.03 0.08 0.13 0.14 0.12 0.11 0.14 0.19 0.24 0.29 0.33 0.41 0.58 0.90 1.37 1.94 2.84 3.42 3.07 2.30 1.75 1.60 1.81 2.17 2.60
0.19 0.21 0.21 0.21 0.24 0.26 0.28 0.29 0.38 0.48 0.29 0.03 0.02 0.04 0.09 0.16 0.17 0.14 0.13 0.14 0.16 0.18 0.20 0.23 0.28 0.40 0.62 0.94 1.34 1.90 2.78 3.25 3.01 2.49 2.03 2.02 2.15 2.47
0.19 0.23 0.24 0.26 0.34 0.36 0.39 0.38 0.34 0.38 0.38 0.09 0.02 0.04 0.12 0.20 0.20 0.14 0.14 0.13 0.11 0.13 0.16 0.20 0.24 0.32 0.48 0.69 0.94 1.29 1.90 2.66 3.10 3.11 2.72 2.39 2.27 2.29
0.22 0.25 0.28 0.31 0.36 0.41 0.48 0.49 0.42 0.36 0.41 0.25 0.06 0.05 0.12 0.23 0.27 0.21 0.18 0.16 0.11 0.12 0.16 0.21 0.27 0.33 0.41 0.55 0.72 0.96 1.31 1.87 2.43 2.83 2.91 2.58 2.39 2.39
0.25 0.31 0.36 0.40 0.39 0.42 0.52 0.56 0.50 0.42 0.42 0.38 0.18 0.08 0.11 0.23 0.33 0.31 0.26 0.24 0.18 0.15 0.16 0.19 0.24 0.30 0.37 0.45 0.59 0.76 0.93 1.13 1.56 2.15 2.71 2.79 2.57 2.50
0.20 0.25 0.36 0.50 0.55 0.59 0.60 0.59 0.60 0.61 0.56 0.51 0.36 0.21 0.18 0.25 0.41 0.46 0.40 0.34 0.29 0.23 0.20 0.19 0.22 0.28 0.32 0.35 0.39 0.50 0.69 0.95 1.25 1.68 2.17 2.58 2.64 2.58
0.18 0.20 0.31 0.52 0.69 0.88 0.95 0.84 0.83 0.90 0.85 0.79 0.66 0.49 0.37 0.39 0.49 0.53 0.59 0.49 0.43 0.35 0.26 0.20 0.21 0.20 0.21 0.26 0.31 0.36 0.48 0.67 0.91 1.24 1.66 2.04 2.37 2.54
0.21 0.20 0.28 0.49 0.63 0.73 0.87 0.90 0.96 1.12 1.18 1.11 0.97 0.78 0.55 0.46 0.49 0.61 0.74 0.80 0.67 0.49 0.39 0.30 0.28 0.25 0.21 0.20 0.25 0.30 0.40 0.54 0.73 0.98 1.28 1.61 1.96 2.30
0.20 0.19 0.23 0.35 0.47 0.56 0.60 0.63 0.69 0.85 1.10 1.23 1.19 0.88 0.69 0.56 0.67 0.79 0.80 0.89 0.79 0.72 0.70 0.60 0.40 0.33 0.27 0.28 0.32 0.32 0.38 0.48 0.60 0.78 1.04 1.30 1.60 1.94
0.19 0.16 0.14 0.22 0.35 0.53 0.62 0.58 0.54 0.63 0.87 1.12 1.29 1.11 0.92 0.88 1.04 1.19 1.20 1.15 0.98 0.93 0.92 0.98 0.69 0.48 0.39 0.35 0.35 0.32 0.36 0.43 0.52 0.63 0.82 1.04 1.26 1.58
0.17 0.16 0.12 0.14 0.28 0.48 0.52 0.48 0.42 0.48 0.61 0.85 1.01 1.03 1.01 1.13 1.35 1.65 1.72 1.61 1.35 1.11 1.03 1.04 1.00 0.86 0.76 0.61 0.51 0.43 0.38 0.40 0.47 0.56 0.68 0.84 1.05 1.40
0.14 0.14 0.16 0.22 0.31 0.40 0.41 0.44 0.53 0.48 0.46 0.49 0.53 0.55 0.61 0.73 1.05 1.47 1.70 1.71 1.48 1.39 1.24 1.10 1.16 1.19 1.35 1.10 0.79 0.56 0.44 0.44 0.47 0.52 0.59 0.67 0.85 1.05
0.19 0.19 0.15 0.23 0.30 0.33 0.39 0.44 0.59 0.55 0.47 0.51 0.51 0.46 0.45 0.53 0.70 1.01 1.41 1.70 1.69 1.52 1.36 1.36 1.49 1.26 1.30 1.29 1.05 0.77 0.54 0.47 0.46 0.53 0.58 0.62 0.70 0.79
0.21 0.17 0.13 0.19 0.25 0.33 0.36 0.41 0.47 0.49 0.46 0.44 0.39 0.36 0.39 0.47 0.59 0.77 1.03 1.33 1.50 1.45 1.30 1.41 1.71 1.42 1.16 1.06 1.02 0.95 0.72 0.59 0.50 0.49 0.51 0.67 0.77 0.80
0.29 0.27 0.20 0.23 0.25 0.21 0.21 0.28 0.33 0.34 0.40 0.42 0.36 0.31 0.36 0.46 0.53 0.61 0.71 0.94 1.15 1.20 1.23 1.32 1.56 1.56 1.36 1.12 0.86 0.82 0.82 0.81 0.67 0.58 0.56 0.57 0.59 0.64
0.30 0.24 0.21 0.21 0.17 0.12 0.11 0.13 0.15 0.21 0.32 0.38 0.35 0.29 0.28 0.35 0.45 0.58 0.69 0.79 1.00 1.09 1.17 1.33 1.58 1.78 1.66 1.16 0.91 0.78 0.70 0.87 0.85 0.71 0.64 0.61 0.57 0.50
0.39 0.37 0.28 0.22 0.20 0.16 0.12 0.09 0.09 0.13 0.20 0.24 0.30 0.32 0.33 0.35 0.38 0.48 0.67 0.79 0.94 1.01 1.13 1.39 1.67 1.79 1.81 1.57 1.27 0.92 0.70 0.70 0.78 0.75 0.72 0.73 0.72 0.61
0.41 0.41 0.27 0.20 0.19 0.17 0.15 0.12 0.10 0.11 0.13 0.19 0.26 0.31 0.35 0.39 0.40 0.43 0.58 0.76 0.89 0.96 1.04 1.23 1.59 1.83 1.96 1.94 1.55 1.10 0.83 0.77 0.87 0.87 0.78 0.75 0.83 0.77
0.32 0.25 0.17 0.15 0.15 0.14 0.15 0.15 0.13 0.10 0.13 0.18 0.22 0.24 0.29 0.36 0.40 0.43 0.50 0.64 0.77 0.89 1.00 1.12 1.38 1.68 1.83 1.93 1.90 1.42 1.03 0.89 0.98 1.13 1.00 0.78 0.72 0.78
0.18 0.18 0.17 0.15 0.16 0.17 0.17 0.17 0.15 0.13 0.14 0.15 0.16 0.19 0.24 0.32 0.37 0.39 0.45 0.59 0.70 0.81 0.93 1.04 1.26 1.49 1.61 1.57 1.63 1.64 1.46 1.13 1.01 1.16 1.18 1.01 0.88 0.95
0.14 0.15 0.15 0.17 0.18 0.18 0.17 0.16 0.16 0.15 0.12 0.13 0.13 0.14 0.18 0.27 0.32 0.33 0.40 0.49 0.61 0.72 0.81 0.90 1.09 1.28 1.49 1.52 1.41 1.38 1.56 1.57 1.20 1.08 1.15 1.16 1.12 1.13
0.16 0.17 0.16 0.17 0.19 0.19 0.18 0.17 0.16 0.14 0.12 0.12 0.12 0.12 0.15 0.21 0.27 0.30 0.37 0.44 0.51 0.60 0.71 0.83 0.96 1.17 1.42 1.55 1.46 1.31 1.43 1.65 1.64 1.40 1.23 1.09 0.98 0.92
0.20 0.20 0.18 0.18 0.18 0.19 0.19 0.18 0.17 0.14 0.12 0.12 0.12 0.12 0.14 0.17 0.20 0.26 0.33 0.39 0.46 0.52 0.63 0.79 0.94 1.09 1.32 1.48 1.49 1.36 1.32 1.44 1.49 1.45 1.54 1.33 0.93 0.65